カタログに戻る

DELTA 1 DEB

運用中PO
NORAD 21293·DEBRIS·🇺🇸 United States

打ち上げ Jun 12, 1975 から Vandenberg Space Force Base

Loading…

次のパス (今後24時間)

TLE

最新Source: Space-Track

元期: Sep 14, 2026, 06:41 UTC

1 21293U 75052AE  26257.27863969  .00000184  00000-0  69855-3 0  9997
2 21293  99.9214  23.3988 0273036 145.9661 245.9021 12.91791123664688

AllMySatでDELTA 1 DEBをリアルタイム追跡

Download on the App Store